Time,TemperatureF,DewpointF,PressureIn,WindDirection,WindDirectionDegrees,WindSpeedMPH,WindSpeedGustMPH,Humidity,HourlyPrecipIn,Conditions,Clouds,dailyrainin,SolarRadiationWatts/m^2,SoftwareType,DateUTC
2013-02-12 00:00:00,42.4,42.2,29.58,WNW,303,3.5,5.8,99,0.00,OVC,FEW,0.43,0.0,WeatherDisplay:10.37,2013-02-12 05:00:00,
2013-02-12 00:05:00,42.3,42.0,29.58,WNW,288,8.1,8.1,99,0.00,RA,FEW,0.00,0.0,WeatherDisplay:10.37,2013-02-12 05:05:00,
2013-02-12 00:10:00,42.3,42.0,29.58,WNW,291,8.1,8.1,99,0.00,OVC,FEW,0.00,0.0,WeatherDisplay:10.37,2013-02-12 05:10:00,
2013-02-12 00:15:00,42.3,42.0,29.58,NW,307,3.5,3.5,99,0.00,OVC,FEW,0.00,0.0,WeatherDisplay:10.37,2013-02-12 05:15:00,
2013-02-12 00:20:00,42.3,42.0,29.58,NW,307,9.2,9.2,99,0.00,OVC,FEW,0.00,0.0,WeatherDisplay:10.37,2013-02-12 05:20:00,
2013-02-12 00:25:00,42.3,42.0,29.61,NNW,327,3.5,3.6,99,0.00,OVC,FEW,0.00,0.0,WeatherDisplay:10.37,2013-02-12 05:25:00,
2013-02-12 00:30:00,42.3,42.0,29.61,WNW,294,5.8,5.8,99,0.00,OVC,FEW,0.00,0.0,WeatherDisplay:10.37,2013-02-12 05:30:00,
2013-02-12 00:35:00,42.3,42.0,29.61,NNW,338,8.3,8.3,99,0.00,OVC,FEW,0.00,0.0,WeatherDisplay:10.37,2013-02-12 05:35:00,
2013-02-12 00:40:00,42.1,41.8,29.58,WNW,299,5.8,5.8,99,0.00,OVC,FEW,0.00,0.0,WeatherDisplay:10.37,2013-02-12 05:40:00,
2013-02-12 00:45:00,41.7,41.2,29.58,SW,227,5.8,5.8,98,0.00,OVC,FEW,0.00,0.0,WeatherDisplay:10.37,2013-02-12 05:45:00,
2013-02-12 00:50:00,41.5,41.0,29.58,WNW,283,5.8,5.8,98,0.00,OVC,FEW,0.00,0.0,WeatherDisplay:10.37,2013-02-12 05:50:00,
2013-02-12 00:55:00,41.4,40.8,29.58,West,273,5.8,5.8,98,0.00,OVC,FEW,0.00,0.0,WeatherDisplay:10.37,2013-02-12 05:55:00,
2013-02-12 01:00:00,41.2,40.7,29.58,NNW,336,8.1,8.1,98,0.00,OVC,FEW,0.00,0.0,WeatherDisplay:10.37,2013-02-12 06:00:00,
2013-02-12 01:05:00,41.0,40.5,29.58,NNW,334,6.9,6.9,98,0.00,OVC,FEW,0.00,0.0,WeatherDisplay:10.37,2013-02-12 06:05:00,
2013-02-12 01:10:00,40.8,40.3,29.61,NW,306,2.3,2.3,98,0.00,OVC,FEW,0.00,0.0,WeatherDisplay:10.37,2013-02-12 06:10:00,
2013-02-12 01:15:00,40.6,40.1,29.61,West,277,3.5,3.5,98,0.00,OVC,FEW,0.00,0.0,WeatherDisplay:10.37,2013-02-12 06:15:00,
2013-02-12 01:20:00,40.5,39.9,29.61,NW,305,5.8,5.8,98,0.00,BKN,FEW,0.00,0.0,WeatherDisplay:10.37,2013-02-12 06:20:00,
2013-02-12 01:25:00,40.3,39.8,29.58,WNW,293,5.8,5.8,98,0.00,BKN,FEW,0.00,0.0,WeatherDisplay:10.37,2013-02-12 06:25:00,
2013-02-12 01:30:00,40.1,39.6,29.58,West,262,8.0,0.0,98,0.00,BKN,FEW,0.00,0.0,WeatherDisplay:10.37,2013-02-12 06:30:00,
2013-02-12 01:35:00,40.1,39.6,29.58,WNW,291,0.0,0.0,98,0.00,BKN,FEW,0.00,0.0,WeatherDisplay:10.37,2013-02-12 06:35:00,
2013-02-12 01:40:00,39.9,39.4,29.61,NW,309,3.5,3.5,98,0.00,BKN,FEW,0.00,0.0,WeatherDisplay:10.37,2013-02-12 06:40:00,
2013-02-12 01:45:00,39.7,39.0,29.61,WNW,296,8.1,8.1,97,0.00,BKN,FEW,0.00,0.0,WeatherDisplay:10.37,2013-02-12 06:45:00,
2013-02-12 01:50:00,39.6,38.8,29.61,WNW,302,6.9,6.9,97,0.00,BKN,FEW,0.00,0.0,WeatherDisplay:10.37,2013-02-12 06:50:00,
2013-02-12 01:55:00,39.4,38.6,29.61,NW,313,5.8,5.8,97,0.00,BKN,FEW,0.00,0.0,WeatherDisplay:10.37,2013-02-12 06:55:00,
2013-02-12 02:00:00,39.4,38.6,29.61,NNW,338,8.1,8.7,97,0.00,BKN,FEW,0.00,0.0,WeatherDisplay:10.37,2013-02-12 07:00:00,
2013-02-12 02:05:00,39.4,38.6,29.61,NW,305,8.1,8.1,97,0.00,BKN,FEW,0.00,0.0,WeatherDisplay:10.37,2013-02-12 07:05:00,
2013-02-12 02:10:00,39.4,38.6,29.61,NW,325,8.1,8.1,97,0.00,BKN,FEW,0.00,0.0,WeatherDisplay:10.37,2013-02-12 07:10:00,
2013-02-12 02:15:00,39.2,38.2,29.61,NW,315,5.8,5.8,96,0.00,BKN,FEW,0.00,0.0,WeatherDisplay:10.37,2013-02-12 07:15:00,
2013-02-12 02:21:00,39.0,38.0,29.61,West,263,6.9,6.9,96,0.00,CLR,FEW,0.00,0.0,WeatherDisplay:10.37,2013-02-12 07:21:00,
2013-02-12 02:26:00,38.7,37.6,29.61,West,276,8.1,8.1,96,0.00,CLR,FEW,0.00,0.0,WeatherDisplay:10.37,2013-02-12 07:26:00,
2013-02-12 02:31:00,38.5,37.4,29.61,NW,313,8.1,8.1,96,0.00,CLR,FEW,0.00,0.0,WeatherDisplay:10.37,2013-02-12 07:31:00,
2013-02-12 02:36:00,38.5,37.4,29.61,NW,321,5.8,5.8,96,0.00,CLR,FEW,0.00,0.0,WeatherDisplay:10.37,2013-02-12 07:36:00,
2013-02-12 02:41:00,38.3,37.0,29.61,NW,309,5.8,6.3,95,0.00,CLR,FEW,0.00,0.0,WeatherDisplay:10.37,2013-02-12 07:41:00,
2013-02-12 02:46:00,38.3,37.0,29.61,NW,320,8.1,8.1,95,0.00,CLR,FEW,0.00,0.0,WeatherDisplay:10.37,2013-02-12 07:46:00,
2013-02-12 02:51:00,38.1,36.8,29.61,West,269,4.6,4.6,95,0.00,CLR,FEW,0.00,0.0,WeatherDisplay:10.37,2013-02-12 07:51:00,
2013-02-12 02:56:00,37.9,36.4,29.61,NNW,339,5.8,5.8,94,0.00,CLR,FEW,0.00,0.0,WeatherDisplay:10.37,2013-02-12 07:56:00,
2013-02-12 03:01:00,37.9,36.4,29.61,NW,325,5.8,5.8,94,0.00,CLR,FEW,0.00,0.0,WeatherDisplay:10.37,2013-02-12 08:01:00,
2013-02-12 03:06:00,37.8,36.2,29.61,NW,304,4.0,4.0,94,0.00,CLR,FEW,0.00,0.0,WeatherDisplay:10.37,2013-02-12 08:06:00,
2013-02-12 03:11:00,37.6,35.7,29.61,NW,311,9.2,9.2,93,0.00,CLR,FEW,0.00,0.0,WeatherDisplay:10.37,2013-02-12 08:11:00,
2013-02-12 03:16:00,37.4,35.6,29.61,NW,310,8.1,8.1,93,0.00,CLR,FEW,0.00,0.0,WeatherDisplay:10.37,2013-02-12 08:16:00,
2013-02-12 03:21:00,37.2,35.4,29.61,WNW,294,5.8,5.8,93,0.00,CLR,FEW,0.00,0.0,WeatherDisplay:10.37,2013-02-12 08:21:00,
2013-02-12 03:26:00,37.0,35.2,29.61,West,281,4.6,4.6,93,0.00,CLR,FEW,0.00,0.0,WeatherDisplay:10.37,2013-02-12 08:26:00,
2013-02-12 03:31:00,36.9,34.8,29.61,NNW,332,5.8,5.8,92,0.00,CLR,FEW,0.00,0.0,WeatherDisplay:10.37,2013-02-12 08:31:00,
2013-02-12 03:36:00,36.7,34.6,29.61,NW,312,3.5,3.5,92,0.00,CLR,FEW,0.00,0.0,WeatherDisplay:10.37,2013-02-12 08:36:00,
2013-02-12 03:41:00,36.5,34.4,29.64,WNW,294,0.0,0.0,92,0.00,CLR,FEW,0.00,0.0,WeatherDisplay:10.37,2013-02-12 08:41:00,
2013-02-12 03:46:00,36.1,33.8,29.64,WNW,303,3.5,3.5,91,0.00,CLR,FEW,0.00,0.0,WeatherDisplay:10.37,2013-02-12 08:46:00,
2013-02-12 03:51:00,36.0,33.6,29.64,WNW,289,5.8,5.8,91,0.00,CLR,FEW,0.00,0.0,WeatherDisplay:10.37,2013-02-12 08:51:00,
2013-02-12 03:56:00,35.8,33.4,29.64,West,269,0.0,0.0,91,0.00,CLR,FEW,0.00,0.0,WeatherDisplay:10.37,2013-02-12 08:56:00,
2013-02-12 04:01:00,35.6,33.2,29.64,West,275,0.0,0.0,91,0.00,CLR,FEW,0.00,0.0,WeatherDisplay:10.37,2013-02-12 09:01:00,
2013-02-12 04:06:00,35.4,33.1,29.64,WNW,283,0.0,0.0,91,0.00,CLR,FEW,0.00,0.0,WeatherDisplay:10.37,2013-02-12 09:06:00,
2013-02-12 04:11:00,35.2,32.9,29.64,WNW,297,0.0,0.0,91,0.00,CLR,FEW,0.00,0.0,WeatherDisplay:10.37,2013-02-12 09:11:00,
2013-02-12 04:16:00,35.1,32.4,29.64,WNW,296,3.5,0.0,90,0.00,CLR,FEW,0.00,0.0,WeatherDisplay:10.37,2013-02-12 09:16:00,
2013-02-12 04:21:00,34.7,32.1,29.64,West,268,0.0,0.0,90,0.00,CLR,FEW,0.00,0.0,WeatherDisplay:10.37,2013-02-12 09:21:00,
2013-02-12 04:26:00,34.3,31.4,29.64,West,263,4.6,4.6,89,0.00,CLR,FEW,0.00,0.0,WeatherDisplay:10.37,2013-02-12 09:26:00,
2013-02-12 04:31:00,34.2,31.3,29.64,West,267,0.0,0.0,89,0.00,CLR,FEW,0.00,0.0,WeatherDisplay:10.37,2013-02-12 09:31:00,
2013-02-12 04:36:00,34.2,31.3,29.64,South,173,5.8,5.8,89,0.00,CLR,FEW,0.00,0.0,WeatherDisplay:10.37,2013-02-12 09:36:00,
2013-02-12 04:41:00,34.3,31.7,29.64,WSW,246,0.0,0.0,90,0.00,CLR,FEW,0.00,0.0,WeatherDisplay:10.37,2013-02-12 09:41:00,
2013-02-12 04:46:00,34.5,31.9,29.64,NW,318,5.8,5.8,90,0.00,CLR,FEW,0.00,0.0,WeatherDisplay:10.37,2013-02-12 09:46:00,
2013-02-12 04:51:00,34.9,32.2,29.64,WSW,238,3.5,3.5,90,0.00,CLR,FEW,0.00,0.0,WeatherDisplay:10.37,2013-02-12 09:51:00,
2013-02-12 04:56:00,35.1,32.4,29.64,West,278,2.3,0.0,90,0.00,CLR,FEW,0.00,0.0,WeatherDisplay:10.37,2013-02-12 09:56:00,
2013-02-12 05:01:00,35.1,32.1,29.64,WNW,295,3.5,0.0,89,0.00,CLR,FEW,0.00,0.0,WeatherDisplay:10.37,2013-02-12 10:01:00,
2013-02-12 05:06:00,35.1,32.1,29.64,WNW,288,0.0,0.0,89,0.00,CLR,FEW,0.00,0.0,WeatherDisplay:10.37,2013-02-12 10:06:00,
2013-02-12 05:11:00,35.1,32.1,29.64,West,267,4.6,4.6,89,0.00,CLR,FEW,0.00,0.0,WeatherDisplay:10.37,2013-02-12 10:11:00,
2013-02-12 05:16:00,34.9,32.0,29.64,West,271,4.6,4.6,89,0.00,CLR,FEW,0.00,0.0,WeatherDisplay:10.37,2013-02-12 10:16:00,
2013-02-12 05:21:00,34.9,31.7,29.64,West,262,0.0,0.0,88,0.00,CLR,FEW,0.00,0.0,WeatherDisplay:10.37,2013-02-12 10:21:00,
2013-02-12 05:26:00,34.9,31.7,29.64,WNW,295,0.0,0.0,88,0.00,CLR,FEW,0.00,0.0,WeatherDisplay:10.37,2013-02-12 10:26:00,
2013-02-12 05:31:00,34.9,31.7,29.64,WNW,285,0.0,0.0,88,0.00,CLR,FEW,0.00,0.0,WeatherDisplay:10.37,2013-02-12 10:31:00,
2013-02-12 05:36:00,34.9,31.4,29.64,West,273,0.0,0.0,87,0.00,CLR,FEW,0.00,0.0,WeatherDisplay:10.37,2013-02-12 10:36:00,
2013-02-12 05:41:00,34.7,31.2,29.64,SW,224,5.8,5.8,87,0.00,CLR,FEW,0.00,0.0,WeatherDisplay:10.37,2013-02-12 10:41:00,
2013-02-12 05:46:00,34.7,31.2,29.64,West,266,3.5,0.0,87,0.00,CLR,FEW,0.00,0.0,WeatherDisplay:10.37,2013-02-12 10:46:00,
2013-02-12 05:51:00,34.5,31.0,29.64,West,274,0.0,0.0,87,0.00,CLR,FEW,0.00,0.0,WeatherDisplay:10.37,2013-02-12 10:51:00,
2013-02-12 05:56:00,34.5,30.8,29.64,WNW,296,3.5,0.0,86,0.00,CLR,FEW,0.00,0.0,WeatherDisplay:10.37,2013-02-12 10:56:00,
2013-02-12 06:01:00,34.5,30.8,29.64,WNW,287,3.5,3.5,86,0.00,FEW,,0.00,0.0,WeatherDisplay:10.37,2013-02-12 11:01:00,
2013-02-12 06:06:00,34.3,30.6,29.64,WNW,294,3.5,0.0,86,0.00,FEW,,0.00,0.0,WeatherDisplay:10.37,2013-02-12 11:06:00,
2013-02-12 06:11:00,34.3,30.6,29.64,West,277,4.6,4.6,86,0.00,FEW,,0.00,0.0,WeatherDisplay:10.37,2013-02-12 11:11:00,
2013-02-12 06:16:00,34.3,30.3,29.64,West,274,3.5,0.0,85,0.00,FEW,,0.00,0.0,WeatherDisplay:10.37,2013-02-12 11:16:00,
2013-02-12 06:21:00,34.3,30.3,29.64,NW,307,3.5,0.0,85,0.00,FEW,,0.00,0.0,WeatherDisplay:10.37,2013-02-12 11:21:00,
2013-02-12 06:26:00,34.3,30.3,29.64,WNW,300,5.8,5.8,85,0.00,FEW,,0.00,0.0,WeatherDisplay:10.37,2013-02-12 11:26:00,
2013-02-12 06:31:00,34.5,30.5,29.64,WNW,302,5.8,5.8,85,0.00,FEW,,0.00,0.0,WeatherDisplay:10.37,2013-02-12 11:31:00,
2013-02-12 06:36:00,34.5,30.2,29.64,WNW,288,3.5,3.6,84,0.00,FEW,,0.00,0.0,WeatherDisplay:10.37,2013-02-12 11:36:00,
2013-02-12 06:41:00,34.5,30.2,29.64,WNW,303,5.8,5.8,84,0.00,FEW,,0.00,0.0,WeatherDisplay:10.37,2013-02-12 11:41:00,
2013-02-12 06:46:00,34.5,30.2,29.64,NW,318,3.5,3.5,84,0.00,FEW,,0.00,0.0,WeatherDisplay:10.37,2013-02-12 11:46:00,
2013-02-12 06:51:00,34.5,30.2,29.64,WNW,302,0.0,0.0,84,0.00,FEW,,0.00,0.0,WeatherDisplay:10.37,2013-02-12 11:51:00,
2013-02-12 06:56:00,34.5,30.2,29.64,WNW,300,4.6,4.6,84,0.00,FEW,,0.00,0.0,WeatherDisplay:10.37,2013-02-12 11:56:00,
2013-02-12 07:01:00,34.5,29.9,29.64,NW,312,0.0,0.0,83,0.00,FEW,,0.00,0.0,WeatherDisplay:10.37,2013-02-12 12:01:00,
2013-02-12 07:06:00,34.3,29.7,29.64,WNW,302,0.0,0.0,83,0.00,FEW,,0.00,0.0,WeatherDisplay:10.37,2013-02-12 12:06:00,
2013-02-12 07:11:00,34.5,29.9,29.67,NW,320,5.8,5.8,83,0.00,FEW,,0.00,0.0,WeatherDisplay:10.37,2013-02-12 12:11:00,
2013-02-12 07:16:00,34.5,29.9,29.67,West,264,5.8,5.8,83,0.00,SCT,FEW,0.00,0.0,WeatherDisplay:10.37,2013-02-12 12:16:00,
2013-02-12 07:21:00,34.7,30.1,29.67,NW,316,5.8,5.8,83,0.00,SCT,FEW,0.00,0.0,WeatherDisplay:10.37,2013-02-12 12:21:00,
2013-02-12 07:26:00,35.1,30.4,29.67,West,277,5.8,5.8,83,0.00,SCT,FEW,0.00,0.0,WeatherDisplay:10.37,2013-02-12 12:26:00,
2013-02-12 07:31:00,35.6,30.9,29.67,WSW,250,8.1,8.1,83,0.00,SCT,FEW,0.00,0.0,WeatherDisplay:10.37,2013-02-12 12:31:00,
2013-02-12 07:36:00,36.1,31.5,29.67,WNW,282,3.5,0.0,83,0.00,SCT,FEW,0.00,0.0,WeatherDisplay:10.37,2013-02-12 12:36:00,
2013-02-12 07:41:00,36.7,31.7,29.67,WNW,293,4.6,4.6,82,0.00,SCT,FEW,0.00,0.0,WeatherDisplay:10.37,2013-02-12 12:41:00,
2013-02-12 07:46:00,36.9,31.9,29.67,West,259,4.6,4.6,82,0.00,SCT,FEW,0.00,0.0,WeatherDisplay:10.37,2013-02-12 12:46:00,
2013-02-12 07:51:00,37.2,31.9,29.67,WSW,240,5.8,5.8,81,0.00,SCT,FEW,0.00,0.0,WeatherDisplay:10.37,2013-02-12 12:51:00,
2013-02-12 07:56:00,37.4,31.8,29.67,WNW,282,8.1,8.1,80,0.00,SCT,FEW,0.00,0.0,WeatherDisplay:10.37,2013-02-12 12:56:00,
2013-02-12 08:01:00,37.8,32.5,29.67,WSW,257,11.5,11.5,81,0.00,SCT,FEW,0.00,0.0,WeatherDisplay:10.37,2013-02-12 13:01:00,
2013-02-12 08:06:00,37.9,32.3,29.67,WSW,240,3.5,3.5,80,0.00,SCT,FEW,0.00,0.0,WeatherDisplay:10.37,2013-02-12 13:06:00,
2013-02-12 08:11:00,38.3,32.4,29.67,WSW,256,2.3,0.0,79,0.00,SCT,FEW,0.00,0.0,WeatherDisplay:10.37,2013-02-12 13:11:00,
2013-02-12 08:16:00,38.5,32.5,29.67,SSW,208,5.8,5.8,79,0.00,SCT,FEW,0.00,0.0,WeatherDisplay:10.37,2013-02-12 13:16:00,
2013-02-12 08:21:00,38.7,32.7,29.67,NW,313,9.2,9.2,79,0.00,SCT,FEW,0.00,0.0,WeatherDisplay:10.37,2013-02-12 13:21:00,
2013-02-12 08:26:00,38.7,32.7,29.67,WSW,248,9.2,9.2,79,0.00,SCT,FEW,0.00,0.0,WeatherDisplay:10.37,2013-02-12 13:26:00,
2013-02-12 08:31:00,38.8,32.6,29.67,WNW,288,6.9,6.9,78,0.00,SCT,FEW,0.00,0.0,WeatherDisplay:10.37,2013-02-12 13:31:00,
2013-02-12 08:36:00,39.4,32.8,29.67,WSW,255,9.2,9.2,77,0.00,SCT,FEW,0.00,0.0,WeatherDisplay:10.37,2013-02-12 13:36:00,
2013-02-12 08:41:00,39.7,33.1,29.67,WNW,302,15.0,15.0,77,0.00,SCT,FEW,0.00,0.0,WeatherDisplay:10.37,2013-02-12 13:41:00,
2013-02-12 08:46:00,40.3,33.6,29.67,North,358,8.1,8.1,77,0.00,SCT,FEW,0.00,0.0,WeatherDisplay:10.37,2013-02-12 13:46:00,
2013-02-12 08:51:00,40.8,33.8,29.67,West,267,9.2,9.2,76,0.00,SCT,FEW,0.00,0.0,WeatherDisplay:10.37,2013-02-12 13:51:00,
2013-02-12 08:56:00,41.0,33.0,29.67,WNW,284,10.4,10.4,73,0.00,SCT,FEW,0.00,0.0,WeatherDisplay:10.37,2013-02-12 13:56:00,
2013-02-12 09:01:00,41.2,32.8,29.67,West,266,9.2,9.2,72,0.00,SCT,FEW,0.00,0.0,WeatherDisplay:10.37,2013-02-12 14:01:00,
2013-02-12 09:06:00,41.5,32.8,29.67,West,259,5.8,5.8,71,0.00,SCT,FEW,0.00,0.0,WeatherDisplay:10.37,2013-02-12 14:06:00,
2013-02-12 09:11:00,41.9,32.8,29.67,West,261,11.5,11.5,70,0.00,SCT,FEW,0.00,0.0,WeatherDisplay:10.37,2013-02-12 14:11:00,
2013-02-12 09:16:00,42.1,32.3,29.67,NW,305,7.6,7.6,68,0.00,SCT,FEW,0.00,0.0,WeatherDisplay:10.37,2013-02-12 14:16:00,
2013-02-12 09:21:00,42.3,32.8,29.67,SW,229,11.5,11.5,69,0.00,SCT,FEW,0.00,0.0,WeatherDisplay:10.37,2013-02-12 14:21:00,
2013-02-12 09:26:00,42.4,32.3,29.67,WNW,285,8.1,8.1,67,0.00,SCT,FEW,0.00,0.0,WeatherDisplay:10.37,2013-02-12 14:26:00,
2013-02-12 09:31:00,42.4,31.9,29.67,WSW,239,11.5,11.5,66,0.00,SCT,FEW,0.00,0.0,WeatherDisplay:10.37,2013-02-12 14:31:00,
2013-02-12 09:36:00,42.4,31.1,29.67,NW,306,8.1,8.1,64,0.00,SCT,FEW,0.00,0.0,WeatherDisplay:10.37,2013-02-12 14:36:00,
2013-02-12 09:41:00,42.3,31.3,29.67,NW,310,15.0,15.0,65,0.00,SCT,FEW,0.00,0.0,WeatherDisplay:10.37,2013-02-12 14:41:00,
2013-02-12 09:46:00,42.3,29.8,29.67,West,280,15.0,15.0,61,0.00,SCT,FEW,0.00,0.0,WeatherDisplay:10.37,2013-02-12 14:46:00,
2013-02-12 09:51:00,42.3,29.8,29.67,NW,318,13.8,13.8,61,0.00,SCT,FEW,0.00,0.0,WeatherDisplay:10.37,2013-02-12 14:51:00,
2013-02-12 09:56:00,42.6,30.1,29.67,NW,305,8.1,8.1,61,0.00,SCT,FEW,0.00,0.0,WeatherDisplay:10.37,2013-02-12 14:56:00,
2013-02-12 10:01:00,42.8,29.5,29.67,North,350,8.1,8.1,59,0.00,SCT,FEW,0.00,0.0,WeatherDisplay:10.37,2013-02-12 15:01:00,
2013-02-12 10:06:00,43.0,29.2,29.67,NW,314,12.7,12.7,58,0.00,SCT,FEW,0.00,0.0,WeatherDisplay:10.37,2013-02-12 15:06:00,
2013-02-12 10:11:00,43.3,29.5,29.70,WSW,258,12.7,12.7,58,0.00,SCT,FEW,0.00,0.0,WeatherDisplay:10.37,2013-02-12 15:11:00,
2013-02-12 10:16:00,43.7,29.9,29.70,West,259,11.5,11.5,58,0.00,BKN,FEW,0.00,0.0,WeatherDisplay:10.37,2013-02-12 15:16:00,
2013-02-12 10:21:00,44.1,30.2,29.70,NNW,332,8.1,8.1,58,0.00,BKN,FEW,0.00,0.0,WeatherDisplay:10.37,2013-02-12 15:21:00,
2013-02-12 10:26:00,44.2,30.4,29.70,NNW,336,9.2,9.2,58,0.00,BKN,FEW,0.00,0.0,WeatherDisplay:10.37,2013-02-12 15:26:00,
2013-02-12 10:31:00,43.7,29.5,29.70,NW,314,8.1,8.1,57,0.00,BKN,FEW,0.00,0.0,WeatherDisplay:10.37,2013-02-12 15:31:00,
2013-02-12 10:36:00,43.3,28.7,29.70,NW,315,13.8,13.8,56,0.00,BKN,FEW,0.00,0.0,WeatherDisplay:10.37,2013-02-12 15:36:00,
2013-02-12 10:41:00,43.3,28.7,29.70,NNW,338,15.0,15.0,56,0.00,BKN,FEW,0.00,0.0,WeatherDisplay:10.37,2013-02-12 15:41:00,
2013-02-12 10:46:00,43.0,28.3,29.70,WNW,301,8.1,8.1,56,0.00,BKN,FEW,0.00,0.0,WeatherDisplay:10.37,2013-02-12 15:46:00,
2013-02-12 10:51:00,43.2,28.5,29.70,North,350,9.2,9.2,56,0.00,BKN,FEW,0.00,0.0,WeatherDisplay:10.37,2013-02-12 15:51:00,
2013-02-12 10:56:00,43.2,28.5,29.70,NW,307,11.5,11.5,56,0.00,BKN,FEW,0.00,0.0,WeatherDisplay:10.37,2013-02-12 15:56:00,
2013-02-12 11:01:00,43.3,28.7,29.70,NW,309,11.5,11.5,56,0.00,BKN,FEW,0.00,0.0,WeatherDisplay:10.37,2013-02-12 16:01:00,
2013-02-12 11:06:00,43.3,28.7,29.70,NNW,330,12.7,12.7,56,0.00,BKN,FEW,0.00,0.0,WeatherDisplay:10.37,2013-02-12 16:06:00,
2013-02-12 11:11:00,42.8,28.2,29.70,NW,323,19.6,19.6,56,0.00,BKN,FEW,0.00,0.0,WeatherDisplay:10.37,2013-02-12 16:11:00,
2013-02-12 11:16:00,42.4,27.8,29.70,NNW,339,15.0,15.0,56,0.00,BKN,FEW,0.00,0.0,WeatherDisplay:10.37,2013-02-12 16:16:00,
2013-02-12 11:21:00,42.3,27.7,29.70,WNW,296,13.8,13.8,56,0.00,BKN,FEW,0.00,0.0,WeatherDisplay:10.37,2013-02-12 16:21:00,
2013-02-12 11:26:00,42.3,27.7,29.70,NNW,346,8.1,8.1,56,0.00,BKN,FEW,0.00,0.0,WeatherDisplay:10.37,2013-02-12 16:26:00,
2013-02-12 11:31:00,42.4,27.8,29.70,WNW,285,15.0,15.0,56,0.00,BKN,FEW,0.00,0.0,WeatherDisplay:10.37,2013-02-12 16:31:00,
2013-02-12 11:36:00,42.8,27.7,29.70,NW,326,12.7,12.7,55,0.00,BKN,FEW,0.00,0.0,WeatherDisplay:10.37,2013-02-12 16:36:00,
2013-02-12 11:41:00,43.0,27.9,29.70,SW,218,10.4,10.4,55,0.00,BKN,FEW,0.00,0.0,WeatherDisplay:10.37,2013-02-12 16:41:00,
2013-02-12 11:46:00,43.0,27.9,29.70,North,2,19.6,19.6,55,0.00,BKN,FEW,0.00,0.0,WeatherDisplay:10.37,2013-02-12 16:46:00,
2013-02-12 11:51:00,43.0,27.9,29.70,West,280,8.1,8.1,55,0.00,BKN,FEW,0.00,0.0,WeatherDisplay:10.37,2013-02-12 16:51:00,
2013-02-12 11:56:00,43.0,27.9,29.70,NW,310,12.7,12.7,55,0.00,BKN,FEW,0.00,0.0,WeatherDisplay:10.37,2013-02-12 16:56:00,
2013-02-12 12:01:00,43.0,27.9,29.70,NNW,345,8.1,8.1,55,0.00,BKN,FEW,0.00,0.0,WeatherDisplay:10.37,2013-02-12 17:01:00,
2013-02-12 12:06:00,43.0,27.9,29.70,WSW,247,10.4,10.4,55,0.00,BKN,FEW,0.00,0.0,WeatherDisplay:10.37,2013-02-12 17:06:00,
2013-02-12 12:11:00,42.8,27.7,29.70,WNW,299,17.3,17.3,55,0.00,BKN,FEW,0.00,0.0,WeatherDisplay:10.37,2013-02-12 17:11:00,
2013-02-12 12:16:00,42.6,27.6,29.70,West,269,12.7,12.7,55,0.00,BKN,FEW,0.00,0.0,WeatherDisplay:10.37,2013-02-12 17:16:00,
2013-02-12 12:21:00,42.4,27.4,29.70,NW,320,12.7,12.7,55,0.00,BKN,FEW,0.00,0.0,WeatherDisplay:10.37,2013-02-12 17:21:00,
2013-02-12 12:26:00,42.4,27.4,29.70,West,266,11.5,11.5,55,0.00,BKN,FEW,0.00,0.0,WeatherDisplay:10.37,2013-02-12 17:26:00,
2013-02-12 12:31:00,42.4,27.4,29.70,West,276,13.8,13.8,55,0.00,BKN,FEW,0.00,0.0,WeatherDisplay:10.37,2013-02-12 17:31:00,
2013-02-12 12:36:00,42.4,27.4,29.70,NW,317,12.7,12.7,55,0.00,BKN,FEW,0.00,0.0,WeatherDisplay:10.37,2013-02-12 17:36:00,
2013-02-12 12:41:00,42.4,27.4,29.70,WNW,290,12.7,12.7,55,0.00,BKN,FEW,0.00,0.0,WeatherDisplay:10.37,2013-02-12 17:41:00,
2013-02-12 12:46:00,42.4,27.4,29.70,WNW,299,8.1,8.1,55,0.00,BKN,FEW,0.00,0.0,WeatherDisplay:10.37,2013-02-12 17:46:00,
2013-02-12 12:51:00,42.4,27.4,29.70,NNW,335,17.3,17.3,55,0.00,BKN,FEW,0.00,0.0,WeatherDisplay:10.37,2013-02-12 17:51:00,
2013-02-12 12:56:00,42.8,27.7,29.70,NNW,331,11.5,11.5,55,0.00,BKN,FEW,0.00,0.0,WeatherDisplay:10.37,2013-02-12 17:56:00,
2013-02-12 13:01:00,43.2,28.1,29.70,WSW,245,17.3,17.3,55,0.00,BKN,FEW,0.00,0.0,WeatherDisplay:10.37,2013-02-12 18:01:00,
2013-02-12 13:06:00,43.2,28.1,29.70,WNW,294,12.7,12.7,55,0.00,BKN,FEW,0.00,0.0,WeatherDisplay:10.37,2013-02-12 18:06:00,
2013-02-12 13:11:00,43.2,28.1,29.70,WNW,284,8.1,8.1,55,0.00,BKN,FEW,0.00,0.0,WeatherDisplay:10.37,2013-02-12 18:11:00,
2013-02-12 13:16:00,43.2,28.1,29.70,NW,325,11.5,11.5,55,0.00,BKN,FEW,0.00,0.0,WeatherDisplay:10.37,2013-02-12 18:16:00,
2013-02-12 13:21:00,43.0,27.9,29.70,NW,313,11.5,11.5,55,0.00,BKN,FEW,0.00,0.0,WeatherDisplay:10.37,2013-02-12 18:21:00,
2013-02-12 13:26:00,42.8,27.7,29.73,WNW,293,12.7,12.7,55,0.00,BKN,FEW,0.00,0.0,WeatherDisplay:10.37,2013-02-12 18:26:00,
2013-02-12 13:31:00,42.8,27.7,29.73,WNW,294,11.5,11.5,55,0.00,BKN,FEW,0.00,0.0,WeatherDisplay:10.37,2013-02-12 18:31:00,
2013-02-12 13:36:00,42.4,27.4,29.73,West,260,12.7,12.7,55,0.00,BKN,FEW,0.00,0.0,WeatherDisplay:10.37,2013-02-12 18:36:00,
2013-02-12 13:41:00,42.3,27.2,29.73,NW,321,15.0,15.0,55,0.00,BKN,FEW,0.00,0.0,WeatherDisplay:10.37,2013-02-12 18:41:00,
2013-02-12 13:46:00,42.1,27.1,29.73,NNW,333,15.0,15.0,55,0.00,BKN,FEW,0.00,0.0,WeatherDisplay:10.37,2013-02-12 18:46:00,
2013-02-12 13:51:00,42.1,27.1,29.73,WNW,283,15.0,15.0,55,0.00,BKN,FEW,0.00,0.0,WeatherDisplay:10.37,2013-02-12 18:51:00,
2013-02-12 13:56:00,42.1,27.1,29.73,NNW,331,17.3,17.3,55,0.00,BKN,FEW,0.00,0.0,WeatherDisplay:10.37,2013-02-12 18:56:00,
2013-02-12 14:01:00,42.1,27.1,29.73,NW,308,8.1,8.1,55,0.00,BKN,FEW,0.00,0.0,WeatherDisplay:10.37,2013-02-12 19:01:00,
2013-02-12 14:06:00,42.1,27.1,29.73,NW,313,10.4,10.4,55,0.00,BKN,FEW,0.00,0.0,WeatherDisplay:10.37,2013-02-12 19:06:00,
2013-02-12 14:11:00,42.1,27.1,29.73,NNW,331,8.1,8.1,55,0.00,BKN,FEW,0.00,0.0,WeatherDisplay:10.37,2013-02-12 19:11:00,
2013-02-12 14:16:00,42.3,27.7,29.73,NNW,329,9.2,9.2,56,0.00,BKN,FEW,0.00,0.0,WeatherDisplay:10.37,2013-02-12 19:16:00,
2013-02-12 14:21:00,42.3,27.7,29.73,WNW,300,5.8,5.8,56,0.00,BKN,FEW,0.00,0.0,WeatherDisplay:10.37,2013-02-12 19:21:00,
2013-02-12 14:26:00,42.1,27.5,29.73,West,271,11.5,11.5,56,0.00,BKN,FEW,0.00,0.0,WeatherDisplay:10.37,2013-02-12 19:26:00,
2013-02-12 14:31:00,42.1,27.5,29.73,NW,326,5.8,5.8,56,0.00,BKN,FEW,0.00,0.0,WeatherDisplay:10.37,2013-02-12 19:31:00,
2013-02-12 14:36:00,42.1,27.5,29.73,West,271,12.7,12.7,56,0.00,BKN,FEW,0.00,0.0,WeatherDisplay:10.37,2013-02-12 19:36:00,
2013-02-12 14:41:00,41.9,26.9,29.73,WNW,303,11.5,11.5,55,0.00,BKN,FEW,0.00,0.0,WeatherDisplay:10.37,2013-02-12 19:41:00,
2013-02-12 14:46:00,41.9,26.9,29.73,West,273,15.0,15.0,55,0.00,BKN,FEW,0.00,0.0,WeatherDisplay:10.37,2013-02-12 19:46:00,
2013-02-12 14:51:00,42.1,27.5,29.73,NW,310,11.5,11.5,56,0.00,BKN,FEW,0.00,0.0,WeatherDisplay:10.37,2013-02-12 19:51:00,
2013-02-12 14:56:00,42.1,27.5,29.73,NNW,332,8.1,8.1,56,0.00,BKN,FEW,0.00,0.0,WeatherDisplay:10.37,2013-02-12 19:56:00,
2013-02-12 15:01:00,42.1,27.5,29.73,NW,309,10.4,10.4,56,0.00,BKN,FEW,0.00,0.0,WeatherDisplay:10.37,2013-02-12 20:01:00,
2013-02-12 15:06:00,42.1,27.5,29.73,West,279,5.8,5.8,56,0.00,BKN,FEW,0.00,0.0,WeatherDisplay:10.37,2013-02-12 20:06:00,
2013-02-12 15:11:00,42.3,27.7,29.76,WSW,255,11.5,11.5,56,0.00,BKN,FEW,0.00,0.0,WeatherDisplay:10.37,2013-02-12 20:11:00,
2013-02-12 15:16:00,42.3,27.7,29.76,WNW,284,3.5,3.6,56,0.00,BKN,FEW,0.00,0.0,WeatherDisplay:10.37,2013-02-12 20:16:00,
2013-02-12 15:21:00,42.3,27.7,29.76,NW,326,11.5,11.5,56,0.00,BKN,FEW,0.00,0.0,WeatherDisplay:10.37,2013-02-12 20:21:00,
2013-02-12 15:26:00,42.3,27.7,29.76,NW,320,10.4,10.4,56,0.00,BKN,FEW,0.00,0.0,WeatherDisplay:10.37,2013-02-12 20:26:00,
2013-02-12 15:31:00,42.1,27.5,29.76,WNW,286,5.8,5.8,56,0.00,BKN,FEW,0.00,0.0,WeatherDisplay:10.37,2013-02-12 20:31:00,
2013-02-12 15:36:00,42.1,27.5,29.76,NW,318,11.5,11.5,56,0.00,BKN,FEW,0.00,0.0,WeatherDisplay:10.37,2013-02-12 20:36:00,
2013-02-12 15:41:00,41.9,27.3,29.73,West,274,12.7,12.7,56,0.00,BKN,FEW,0.00,0.0,WeatherDisplay:10.37,2013-02-12 20:41:00,
2013-02-12 15:46:00,41.9,27.3,29.73,NNW,336,8.1,8.1,56,0.00,BKN,FEW,0.00,0.0,WeatherDisplay:10.37,2013-02-12 20:46:00,
2013-02-12 15:51:00,41.7,27.2,29.73,WNW,290,5.8,5.8,56,0.00,BKN,FEW,0.00,0.0,WeatherDisplay:10.37,2013-02-12 20:51:00,
2013-02-12 15:56:00,41.5,27.0,29.73,NW,304,12.7,12.7,56,0.00,BKN,FEW,0.00,0.0,WeatherDisplay:10.37,2013-02-12 20:56:00,
2013-02-12 16:01:00,41.4,26.8,29.73,West,275,15.0,15.0,56,0.00,SCT,FEW,0.00,0.0,WeatherDisplay:10.37,2013-02-12 21:01:00,
2013-02-12 16:06:00,41.2,26.7,29.73,NNW,348,8.1,8.1,56,0.00,SCT,FEW,0.00,0.0,WeatherDisplay:10.37,2013-02-12 21:06:00,
2013-02-12 16:11:00,41.2,26.7,29.76,WNW,285,10.4,10.4,56,0.00,SCT,FEW,0.00,0.0,WeatherDisplay:10.37,2013-02-12 21:11:00,
2013-02-12 16:16:00,41.0,26.5,29.76,NW,307,5.8,5.8,56,0.00,SCT,FEW,0.00,0.0,WeatherDisplay:10.37,2013-02-12 21:16:00,
2013-02-12 16:21:00,41.0,26.5,29.76,NW,305,12.7,12.7,56,0.00,SCT,FEW,0.00,0.0,WeatherDisplay:10.37,2013-02-12 21:21:00,
2013-02-12 16:26:00,40.8,26.3,29.73,NNW,327,8.3,8.3,56,0.00,SCT,FEW,0.00,0.0,WeatherDisplay:10.37,2013-02-12 21:26:00,
2013-02-12 16:31:00,40.6,26.2,29.73,West,281,9.2,9.2,56,0.00,SCT,FEW,0.00,0.0,WeatherDisplay:10.37,2013-02-12 21:31:00,
2013-02-12 16:36:00,40.6,26.2,29.73,WNW,285,12.7,12.7,56,0.00,SCT,FEW,0.00,0.0,WeatherDisplay:10.37,2013-02-12 21:36:00,
2013-02-12 16:41:00,40.6,26.2,29.73,NNW,331,10.4,10.4,56,0.00,SCT,FEW,0.00,0.0,WeatherDisplay:10.37,2013-02-12 21:41:00,
2013-02-12 16:46:00,40.6,26.2,29.73,NW,308,10.4,10.4,56,0.00,SCT,FEW,0.00,0.0,WeatherDisplay:10.37,2013-02-12 21:46:00,
2013-02-12 16:51:00,40.5,26.0,29.73,West,275,10.4,10.4,56,0.00,SCT,FEW,0.00,0.0,WeatherDisplay:10.37,2013-02-12 21:51:00,
2013-02-12 16:56:00,40.1,25.6,29.73,NNW,342,8.1,8.1,56,0.00,SCT,FEW,0.00,0.0,WeatherDisplay:10.37,2013-02-12 21:56:00,
2013-02-12 17:01:00,39.9,25.5,29.73,NW,314,5.8,5.8,56,0.00,SCT,FEW,0.00,0.0,WeatherDisplay:10.37,2013-02-12 22:01:00,
2013-02-12 17:06:00,39.7,25.3,29.73,West,278,3.5,0.0,56,0.00,SCT,FEW,0.00,0.0,WeatherDisplay:10.37,2013-02-12 22:06:00,
2013-02-12 17:11:00,39.4,25.4,29.76,WNW,298,6.9,6.9,57,0.00,SCT,FEW,0.00,0.0,WeatherDisplay:10.37,2013-02-12 22:11:00,
2013-02-12 17:16:00,39.2,25.2,29.76,West,278,5.8,5.8,57,0.00,SCT,FEW,0.00,0.0,WeatherDisplay:10.37,2013-02-12 22:16:00,
2013-02-12 17:21:00,39.2,25.2,29.76,WNW,303,6.9,6.9,57,0.00,SCT,FEW,0.00,0.0,WeatherDisplay:10.37,2013-02-12 22:21:00,
2013-02-12 17:26:00,39.0,25.1,29.76,WNW,294,8.1,8.1,57,0.00,SCT,FEW,0.00,0.0,WeatherDisplay:10.37,2013-02-12 22:26:00,
2013-02-12 17:31:00,38.8,24.9,29.76,NW,323,8.1,8.1,57,0.00,SCT,FEW,0.00,0.0,WeatherDisplay:10.37,2013-02-12 22:31:00,
2013-02-12 17:36:00,38.7,24.7,29.76,NW,323,3.5,3.5,57,0.00,SCT,FEW,0.00,0.0,WeatherDisplay:10.37,2013-02-12 22:36:00,
2013-02-12 17:41:00,38.5,25.0,29.76,West,280,0.0,0.0,58,0.00,SCT,FEW,0.00,0.0,WeatherDisplay:10.37,2013-02-12 22:41:00,
2013-02-12 17:46:00,38.5,25.0,29.76,SW,235,0.0,0.0,58,0.00,SCT,FEW,0.00,0.0,WeatherDisplay:10.37,2013-02-12 22:46:00,
2013-02-12 17:51:00,38.3,24.8,29.76,NNW,341,9.2,9.2,58,0.00,SCT,FEW,0.00,0.0,WeatherDisplay:10.37,2013-02-12 22:51:00,
2013-02-12 17:56:00,38.3,24.8,29.73,WNW,298,8.1,8.1,58,0.00,SCT,FEW,0.00,0.0,WeatherDisplay:10.37,2013-02-12 22:56:00,
2013-02-12 18:01:00,38.3,24.8,29.73,WNW,302,8.1,8.1,58,0.00,SCT,FEW,0.00,0.0,WeatherDisplay:10.37,2013-02-12 23:01:00,
2013-02-12 18:06:00,38.3,24.8,29.73,WNW,285,3.5,3.5,58,0.00,SCT,FEW,0.00,0.0,WeatherDisplay:10.37,2013-02-12 23:06:00,
2013-02-12 18:11:00,38.1,24.6,29.76,West,276,6.9,6.9,58,0.00,SCT,FEW,0.00,0.0,WeatherDisplay:10.37,2013-02-12 23:11:00,
2013-02-12 18:16:00,37.9,24.5,29.76,WNW,284,3.5,3.5,58,0.00,SCT,FEW,0.00,0.0,WeatherDisplay:10.37,2013-02-12 23:16:00,
2013-02-12 18:21:00,37.9,24.5,29.76,West,272,9.2,9.2,58,0.00,SCT,FEW,0.00,0.0,WeatherDisplay:10.37,2013-02-12 23:21:00,
2013-02-12 18:26:00,37.8,24.7,29.76,WNW,282,3.5,3.6,59,0.00,SCT,FEW,0.00,0.0,WeatherDisplay:10.37,2013-02-12 23:26:00,
2013-02-12 18:31:00,37.8,24.7,29.76,WNW,295,5.8,5.8,59,0.00,SCT,FEW,0.00,0.0,WeatherDisplay:10.37,2013-02-12 23:31:00,
2013-02-12 18:36:00,37.6,24.5,29.76,West,259,0.0,0.0,59,0.00,SCT,FEW,0.00,0.0,WeatherDisplay:10.37,2013-02-12 23:36:00,
2013-02-12 18:41:00,37.6,24.5,29.76,WSW,245,6.9,6.9,59,0.00,SCT,FEW,0.00,0.0,WeatherDisplay:10.37,2013-02-12 23:41:00,
2013-02-12 18:46:00,37.6,24.5,29.76,WNW,282,5.8,5.8,59,0.00,SCT,FEW,0.00,0.0,WeatherDisplay:10.37,2013-02-12 23:46:00,
2013-02-12 18:51:00,37.4,24.4,29.76,WSW,238,10.4,10.4,59,0.00,SCT,FEW,0.00,0.0,WeatherDisplay:10.37,2013-02-12 23:51:00,
2013-02-12 18:56:00,37.4,24.4,29.79,West,271,3.5,3.5,59,0.00,SCT,FEW,0.00,0.0,WeatherDisplay:10.37,2013-02-12 23:56:00,
2013-02-12 19:01:00,37.4,24.8,29.79,West,261,5.8,5.8,60,0.00,BKN,FEW,0.00,0.0,WeatherDisplay:10.37,2013-02-13 00:01:00,
2013-02-12 19:06:00,37.4,24.8,29.79,West,266,0.0,0.0,60,0.00,BKN,FEW,0.00,0.0,WeatherDisplay:10.37,2013-02-13 00:06:00,
2013-02-12 19:11:00,37.4,24.8,29.82,West,259,5.8,5.8,60,0.00,BKN,FEW,0.00,0.0,WeatherDisplay:10.37,2013-02-13 00:11:00,
2013-02-12 19:16:00,37.4,24.8,29.82,West,276,3.5,0.0,60,0.00,BKN,FEW,0.00,0.0,WeatherDisplay:10.37,2013-02-13 00:16:00,
2013-02-12 19:21:00,37.4,24.8,29.82,WSW,254,10.4,10.4,60,0.00,BKN,FEW,0.00,0.0,WeatherDisplay:10.37,2013-02-13 00:21:00,
2013-02-12 19:26:00,37.4,24.8,29.82,West,273,4.6,4.6,60,0.00,BKN,FEW,0.00,0.0,WeatherDisplay:10.37,2013-02-13 00:26:00,
2013-02-12 19:31:00,37.4,24.8,29.82,West,272,8.1,8.1,60,0.00,BKN,FEW,0.00,0.0,WeatherDisplay:10.37,2013-02-13 00:31:00,
2013-02-12 19:36:00,37.2,25.0,29.82,WNW,288,4.6,4.6,61,0.00,BKN,FEW,0.00,0.0,WeatherDisplay:10.37,2013-02-13 00:36:00,
2013-02-12 19:41:00,37.4,24.8,29.85,West,269,8.1,8.1,60,0.00,BKN,FEW,0.00,0.0,WeatherDisplay:10.37,2013-02-13 00:41:00,
2013-02-12 19:46:00,37.4,24.8,29.85,WSW,241,4.6,4.6,60,0.00,BKN,FEW,0.00,0.0,WeatherDisplay:10.37,2013-02-13 00:46:00,
2013-02-12 19:51:00,37.4,24.8,29.85,WSW,237,3.5,3.5,60,0.00,BKN,FEW,0.00,0.0,WeatherDisplay:10.37,2013-02-13 00:51:00,
2013-02-12 19:56:00,37.2,25.0,29.85,SW,233,12.7,12.7,61,0.00,BKN,FEW,0.00,0.0,WeatherDisplay:10.37,2013-02-13 00:56:00,
2013-02-12 20:01:00,37.4,24.8,29.85,SW,221,10.4,10.4,60,0.00,BKN,FEW,0.00,0.0,WeatherDisplay:10.37,2013-02-13 01:01:00,
2013-02-12 20:06:00,37.4,24.8,29.85,WSW,243,5.8,5.8,60,0.00,BKN,FEW,0.00,0.0,WeatherDisplay:10.37,2013-02-13 01:06:00,
2013-02-12 20:11:00,37.4,24.8,29.88,SW,219,5.8,5.8,60,0.00,BKN,FEW,0.00,0.0,WeatherDisplay:10.37,2013-02-13 01:11:00,
2013-02-12 20:16:00,37.4,24.8,29.88,WNW,302,8.1,8.1,60,0.00,SCT,FEW,0.00,0.0,WeatherDisplay:10.37,2013-02-13 01:16:00,
2013-02-12 20:21:00,37.2,24.6,29.88,NW,313,5.8,5.8,60,0.00,SCT,FEW,0.00,0.0,WeatherDisplay:10.37,2013-02-13 01:21:00,
2013-02-12 20:26:00,37.0,24.4,29.85,West,259,3.5,4.9,60,0.00,SCT,FEW,0.00,0.0,WeatherDisplay:10.37,2013-02-13 01:26:00,
2013-02-12 20:31:00,36.9,24.3,29.85,NW,317,8.1,0.0,60,0.00,SCT,FEW,0.00,0.0,WeatherDisplay:10.37,2013-02-13 01:31:00,
2013-02-12 20:36:00,36.9,24.3,29.85,West,278,5.8,5.8,60,0.00,SCT,FEW,0.00,0.0,WeatherDisplay:10.37,2013-02-13 01:36:00,
2013-02-12 20:41:00,36.7,24.1,29.88,West,269,3.5,6.3,60,0.00,SCT,FEW,0.00,0.0,WeatherDisplay:10.37,2013-02-13 01:41:00,
2013-02-12 20:46:00,36.7,24.1,29.88,NNW,336,10.4,10.4,60,0.00,SCT,FEW,0.00,0.0,WeatherDisplay:10.37,2013-02-13 01:46:00,
2013-02-12 20:51:00,36.5,23.9,29.88,NW,323,3.5,3.6,60,0.00,SCT,FEW,0.00,0.0,WeatherDisplay:10.37,2013-02-13 01:51:00,
2013-02-12 20:56:00,36.3,23.8,29.85,NW,311,8.1,8.1,60,0.00,SCT,FEW,0.00,0.0,WeatherDisplay:10.37,2013-02-13 01:56:00,
2013-02-12 21:01:00,36.3,23.8,29.85,NW,321,3.5,3.5,60,0.00,SCT,FEW,0.00,0.0,WeatherDisplay:10.37,2013-02-13 02:01:00,
2013-02-12 21:06:00,36.1,23.6,29.85,NNW,337,5.8,5.8,60,0.00,SCT,FEW,0.00,0.0,WeatherDisplay:10.37,2013-02-13 02:06:00,
2013-02-12 21:11:00,36.1,23.6,29.85,NW,315,3.5,0.0,60,0.00,SCT,FEW,0.00,0.0,WeatherDisplay:10.37,2013-02-13 02:11:00,
2013-02-12 21:16:00,36.0,23.4,29.85,WNW,289,3.5,3.5,60,0.00,SCT,FEW,0.00,0.0,WeatherDisplay:10.37,2013-02-13 02:16:00,
2013-02-12 21:21:00,35.8,23.2,29.85,NW,310,8.1,8.1,60,0.00,SCT,FEW,0.00,0.0,WeatherDisplay:10.37,2013-02-13 02:21:00,
2013-02-12 21:26:00,35.8,23.2,29.85,WNW,282,3.5,0.0,60,0.00,SCT,FEW,0.00,0.0,WeatherDisplay:10.37,2013-02-13 02:26:00,
2013-02-12 21:31:00,35.6,23.1,29.85,West,273,5.8,5.8,60,0.00,SCT,FEW,0.00,0.0,WeatherDisplay:10.37,2013-02-13 02:31:00,
2013-02-12 21:36:00,35.6,23.1,29.85,NNW,331,0.0,0.0,60,0.00,SCT,FEW,0.00,0.0,WeatherDisplay:10.37,2013-02-13 02:36:00,
2013-02-12 21:41:00,35.2,23.1,29.82,West,262,3.5,3.5,61,0.00,SCT,FEW,0.00,0.0,WeatherDisplay:10.37,2013-02-13 02:41:00,
2013-02-12 21:46:00,35.1,23.0,29.82,West,259,0.0,0.0,61,0.00,SCT,FEW,0.00,0.0,WeatherDisplay:10.37,2013-02-13 02:46:00,
2013-02-12 21:51:00,34.9,22.8,29.82,WSW,253,4.6,0.0,61,0.00,SCT,FEW,0.00,0.0,WeatherDisplay:10.37,2013-02-13 02:51:00,
2013-02-12 21:56:00,34.9,22.8,29.82,WNW,284,4.6,4.6,61,0.00,SCT,FEW,0.00,0.0,WeatherDisplay:10.37,2013-02-13 02:56:00,
2013-02-12 22:01:00,34.7,22.6,29.82,NW,321,0.0,0.0,61,0.00,FEW,,0.00,0.0,WeatherDisplay:10.37,2013-02-13 03:01:00,
2013-02-12 22:06:00,34.5,22.4,29.82,West,269,0.0,0.0,61,0.00,FEW,,0.00,0.0,WeatherDisplay:10.37,2013-02-13 03:06:00,
2013-02-12 22:11:00,34.3,22.3,29.82,West,278,0.0,0.0,61,0.00,FEW,,0.00,0.0,WeatherDisplay:10.37,2013-02-13 03:11:00,
2013-02-12 22:16:00,34.2,22.1,29.82,WNW,295,0.0,0.0,61,0.00,FEW,,0.00,0.0,WeatherDisplay:10.37,2013-02-13 03:16:00,
2013-02-12 22:21:00,34.0,21.9,29.82,NW,313,0.0,0.0,61,0.00,FEW,,0.00,0.0,WeatherDisplay:10.37,2013-02-13 03:21:00,
2013-02-12 22:26:00,33.8,22.1,29.82,NW,318,0.0,0.0,62,0.00,FEW,,0.00,0.0,WeatherDisplay:10.37,2013-02-13 03:26:00,
2013-02-12 22:31:00,33.6,22.0,29.82,WNW,302,0.0,0.0,62,0.00,FEW,,0.00,0.0,WeatherDisplay:10.37,2013-02-13 03:31:00,
2013-02-12 22:36:00,33.4,22.2,29.82,WNW,302,0.0,0.0,63,0.00,FEW,,0.00,0.0,WeatherDisplay:10.37,2013-02-13 03:36:00,
2013-02-12 22:41:00,33.3,22.0,29.82,NW,313,0.0,0.0,63,0.00,FEW,,0.00,0.0,WeatherDisplay:10.37,2013-02-13 03:41:00,
2013-02-12 22:46:00,33.1,21.8,29.82,NW,305,5.8,5.8,63,0.00,FEW,,0.00,0.0,WeatherDisplay:10.37,2013-02-13 03:46:00,
2013-02-12 22:51:00,32.9,21.7,29.82,NW,320,2.3,0.0,63,0.00,FEW,,0.00,0.0,WeatherDisplay:10.37,2013-02-13 03:51:00,
2013-02-12 22:57:00,32.7,21.9,29.79,NNW,330,4.6,4.6,64,0.00,FEW,,0.00,0.0,WeatherDisplay:10.37,2013-02-13 03:57:00,
2013-02-12 23:01:00,32.7,21.9,29.79,WNW,293,4.6,4.6,64,0.00,FEW,,0.00,0.0,WeatherDisplay:10.37,2013-02-13 04:01:00,
2013-02-12 23:07:00,32.7,22.2,29.79,NW,306,4.6,4.6,65,0.00,FEW,,0.00,0.0,WeatherDisplay:10.37,2013-02-13 04:07:00,
2013-02-12 23:12:00,32.7,22.2,29.79,NW,322,3.5,3.5,65,0.00,FEW,,0.00,0.0,WeatherDisplay:10.37,2013-02-13 04:12:00,
2013-02-12 23:17:00,32.7,22.2,29.79,NW,314,0.0,0.0,65,0.00,FEW,,0.00,0.0,WeatherDisplay:10.37,2013-02-13 04:17:00,
2013-02-12 23:22:00,32.7,22.6,29.79,NW,304,0.0,0.0,66,0.00,FEW,,0.00,0.0,WeatherDisplay:10.37,2013-02-13 04:22:00,
2013-02-12 23:27:00,32.7,22.6,29.79,NW,310,5.8,5.8,66,0.00,FEW,,0.00,0.0,WeatherDisplay:10.37,2013-02-13 04:27:00,
2013-02-12 23:32:00,32.7,22.6,29.79,West,279,0.0,0.0,66,0.00,FEW,,0.00,0.0,WeatherDisplay:10.37,2013-02-13 04:32:00,
2013-02-12 23:37:00,32.9,22.8,29.79,NNW,336,4.6,4.6,66,0.00,FEW,,0.00,0.0,WeatherDisplay:10.37,2013-02-13 04:37:00,
2013-02-12 23:42:00,33.1,22.9,29.82,NW,322,0.0,0.0,66,0.00,FEW,,0.00,0.0,WeatherDisplay:10.37,2013-02-13 04:42:00,
2013-02-12 23:47:00,33.1,22.9,29.82,North,5,8.1,8.1,66,0.00,FEW,,0.00,0.0,WeatherDisplay:10.37,2013-02-13 04:47:00,
2013-02-12 23:52:00,33.3,23.1,29.82,NW,314,8.1,8.1,66,0.00,FEW,,0.00,0.0,WeatherDisplay:10.37,2013-02-13 04:52:00,
2013-02-12 23:57:00,33.4,22.9,29.82,WNW,299,3.5,3.5,65,0.00,FEW,,0.00,0.0,WeatherDisplay:10.37,2013-02-13 04:57:00,